Regional Weather Roundup
Issued by NWS

Home | Current Version | Previous Version | Graphics & Text | Print | Product List | Glossary On
Versions: 1 2 3 4 5 6 7 8 9 10 11 12 13 14 15 16 17 18 19 20 21 22 23 24 25 26 27 28 29 30 31 32 33 34 35 36 37 38 39 40 41 42 43 44 45 46 47 48 49 50
077
ASUS44 KLIX 151301
RWRLA
LOUISIANA WEATHER ROUNDUP
NATIONAL WEATHER SERVICE NEW ORLEANS LA
800 AM CDT MON SEP 15 2014

NOTE: "FAIR" INDICATES FEW OR NO CLOUDS BELOW 12,000 FEET WITH NO
      SIGNIFICANT WEATHER AND/OR OBSTRUCTIONS TO VISIBILITY.
      SKY/WX - SKY CONDITION AND SIGNIFICANT WEATHER.
      TMP - AIR TEMPERATURE.    DP   - DEWPOINT TEMPERATURE.
      RH  - RELATIVE HUMIDITY.  PRES - PRESSURE.
      HX  - HEAT INDEX.         WCI  - WIND CHILL INDEX.

*  THESE STATIONS ARE NOT NWS OR FAA STATIONS AND ARE NOT UNDER
   NWS QUALITY CONTROL.

LAZ040-048-061>063-065-066-069-151400-
SOUTHEAST LOUISIANA

CITY           SKY/WX    TMP DP  RH WIND       PRES   REMARKS
N.O. AUDUBON   NOT AVBL
N.O. INTL ARPT PTSUNNY   83  77  82 NE10      30.08S
N.O. LAKEFRONT PTSUNNY   82  77  84 NE10      30.09S
N.O. DOWNTOWN* PTSUNNY   81  73  78 NE6       30.09S
SLIDELL        SUNNY     76  73  91 N3        30.09S
BATON ROUGE    SUNNY     74  71  91 E6        30.10R
BOOTHVILLE     SUNNY     83  77  82 E3        30.08S
BELLE CHASSE   PTSUNNY   81  76  84 NE3       30.08R
BOGALUSA*      FAIR      75  72  88 CALM      30.13R FOG
GALLIANO*      NOT AVBL
NEW ROADS*     FAIR      74  71  91 CALM      30.10S
GONZALES*      FAIR      76  76 100 N3        30.09R
HAMMOND*       NOT AVBL
HOUMA*         MOSUNNY   79  75  89 N7        30.08S
PORT FOURCHON* SUNNY     84  75  74 SE7       30.10S

$$

LAZ041-044-053-054-151400-
SOUTHWEST LOUISIANA

CITY           SKY/WX    TMP DP  RH WIND       PRES   REMARKS
LAKE CHARLES   SUNNY     71  68  90 NE8       30.09R
LAFAYETTE      SUNNY     73  72  96 NE5       30.09R
PATTERSON      MOSUNNY   77  75  94 NE7       30.10S
SALT POINT       N/A     80  77  90 VRB3      30.06F
NEW IBERIA     SUNNY     75  72  90 NE7       30.09R
CHENAULT AIRPK NOT AVBL

$$

LAZ027-028-151400-
CENTRAL LOUISIANA

CITY           SKY/WX    TMP DP  RH WIND       PRES   REMARKS
FORT POLK      SUNNY     70  67  90 NE5       30.12R
ALEXANDRIA INT SUNNY     68  67  96 CALM      30.11R FOG
ALEXANDRIA     SUNNY     72  67  84 CALM      30.12R

$$

LAZ001-002-151400-
NORTHWEST LOUISIANA

CITY           SKY/WX    TMP DP  RH WIND       PRES   REMARKS
SHREVEPORT     PTSUNNY   70  65  84 CALM      30.15R
BARKSDALE AFB  PTSUNNY   67  64  92 N2        30.15S
DTN SHREVEPORT PTSUNNY   67  64  90 CALM      30.15S

$$

LAZ014-016-151400-
NORTHEAST LOUISIANA

CITY           SKY/WX    TMP DP  RH WIND       PRES   REMARKS
MONROE         MOSUNNY   68  64  87 CALM      30.15R
TALLULAH       MOSUNNY   72  67  84 N3        30.13S

$$




USA.gov is the U.S. government's official web portal to all federal, state and local government web resources and services.